TimeCET,TemperatureF,Dew PointF,Humidity,Sea Level PressureIn,VisibilityMPH,Wind Direction,Wind SpeedMPH,Gust SpeedMPH,PrecipitationIn,Events,Conditions,WindDirDegrees,DateUTC
12:00 AM,26.6,26.6,100,29.65,-9999.0,Calm,Calm,-,N/A,,Unknown,0,2012-10-30 23:00:00
1:00 AM,24.8,24.8,100,29.62,-9999.0,Calm,Calm,-,N/A,,Unknown,0,2012-10-31 00:00:00
2:00 AM,26.6,26.6,100,29.62,-9999.0,Calm,Calm,-,N/A,,Unknown,0,2012-10-31 01:00:00
3:00 AM,26.6,26.6,100,29.59,-9999.0,Calm,Calm,-,N/A,,Unknown,0,2012-10-31 02:00:00
4:00 AM,26.6,26.6,100,29.56,-9999.0,Variable,1.2,-,N/A,,Unknown,0,2012-10-31 03:00:00
5:00 AM,24.8,24.8,100,29.56,-9999.0,Calm,Calm,-,N/A,,Unknown,0,2012-10-31 04:00:00
6:00 AM,26.6,24.8,93,29.53,3.7,Calm,Calm,-,N/A,,Unknown,0,2012-10-31 05:00:00
7:00 AM,24.8,23.0,93,29.53,3.7,Calm,Calm,-,N/A,,Unknown,0,2012-10-31 06:00:00
8:00 AM,24.8,24.8,100,29.53,5.0,Calm,Calm,-,N/A,,Unknown,0,2012-10-31 07:00:00
9:00 AM,32.0,30.2,93,29.53,3.1,Calm,Calm,-,N/A,,Unknown,0,2012-10-31 08:00:00
11:00 AM,48.2,39.2,71,29.50,-9999.0,SSW,4.6,-,N/A,,Clear,200,2012-10-31 10:00:00
1:00 PM,55.4,44.6,67,29.47,6.2,SSW,6.9,-,N/A,,Partly Cloudy,200,2012-10-31 12:00:00
2:00 PM,57.2,44.6,63,29.42,6.2,South,10.4,-,N/A,,Scattered Clouds,190,2012-10-31 13:00:00
3:00 PM,57.2,46.4,67,29.42,6.2,South,9.2,-,N/A,,Mostly Cloudy,190,2012-10-31 14:00:00
4:00 PM,57.2,46.4,67,29.39,6.2,South,5.8,-,N/A,,Scattered Clouds,190,2012-10-31 15:00:00
5:00 PM,55.4,46.4,72,29.39,6.2,SSW,5.8,-,N/A,,Partly Cloudy,200,2012-10-31 16:00:00
6:00 PM,46.4,44.6,93,29.36,-9999.0,South,3.5,-,N/A,,Unknown,170,2012-10-31 17:00:00
7:00 PM,48.2,46.4,93,29.36,-9999.0,South,3.5,-,N/A,,Unknown,170,2012-10-31 18:00:00
8:00 PM,51.8,48.2,88,29.36,-9999.0,SSE,6.9,-,N/A,,Unknown,160,2012-10-31 19:00:00
9:00 PM,51.8,48.2,88,29.33,-9999.0,South,5.8,-,N/A,,Unknown,170,2012-10-31 20:00:00
10:00 PM,50.0,48.2,94,29.33,-9999.0,SSW,8.1,-,N/A,,Unknown,200,2012-10-31 21:00:00
11:00 PM,48.2,46.4,93,29.30,-9999.0,South,10.4,-,N/A,,Unknown,190,2012-10-31 22:00:00